This demonstration page uses our WeatherBlox Daily Observations layout. Learn more.

Left ArrowRight Arrow

44.8408, -93.29828

Hourly Observations for July 8, 2019

Temp ( °F °C ) Dew Point ( °F °C ) Humidity (%) Winds ( mph kmh ) Pressure ( in mb ) Visibility ( mi km ) Precip ( " mm )
12:53 am 00:53 Clear 73 22.8 65 18.3 76 76 SSE 6 9 30.01 1016 10 16 0.00 0.00
1:53 am 01:53 Clear 73 22.8 65 18.3 76 76 S 6 9 30.01 1016 10 16 0.00 0.00
2:53 am 02:53 Clear 71 21.7 65 18.3 81 81 SE 5 7 30.03 1017 10 16 0.00 0.00
3:53 am 03:53 Clear 69 20.6 65 18.3 87 87 ESE 5 7 30.02 1017 9 14 0.00 0.00
4:53 am 04:53 Clear 69 20.6 65 18.3 87 87 ESE 6 9 30.01 1016 9 14 0.00 0.00
5:53 am 05:53 Mostly Sunny 68 20 64 17.8 87 87 SE 6 9 30.03 1017 8 13 0.00 0.00
6:53 am 06:53 Mostly Sunny 69 20.6 64 17.8 84 84 ESE 6 9 30.04 1017 8 13 0.00 0.00
7:53 am 07:53 Mostly Sunny 72 22.2 64 17.8 76 76 SSE 3 6 30.03 1017 9 14 0.00 0.00
8:53 am 08:53 Mostly Sunny 77 25 62 16.7 60 60 SSW 8 13 30.02 1017 10 16 0.00 0.00
9:53 am 09:53 Mostly Sunny 80 26.7 62 16.7 54 54 SSW 8 13 30.01 1016 10 16 0.00 0.00
10:53 am 10:53 Mostly Sunny 82 27.8 62 16.7 51 51 SSE 12 19 30.02 1017 10 16 0.00 0.00
11:53 am 11:53 Partly Cloudy 84 28.9 61 16.1 46 46 S 14 22 30.01 1016 10 16 0.00 0.00
12:53 pm 12:53 Mostly Cloudy 84 28.9 61 16.1 46 46 SSW 12 19 30.00 1016 10 16 0.00 0.00
1:53 pm 13:53 Mostly Cloudy 84 28.9 60 15.6 44 44 S 14 22 30.00 1016 10 16 0.00 0.00
2:53 pm 14:53 Mostly Cloudy 85 29.4 61 16.1 45 45 S 10 17 29.98 1015 10 16 0.00 0.00
3:53 pm 15:53 Mostly Cloudy 85 29.4 61 16.1 45 45 S 12 19 29.97 1015 10 16 0.00 0.00
4:53 pm 16:53 Mostly Cloudy 85 29.4 60 15.6 43 43 S 15 24 29.96 1014 10 16 0.00 0.00
5:53 pm 17:53 Mostly Cloudy 84 28.9 62 16.7 48 48 S 13 20 29.93 1014 10 16 0.00 0.00
6:53 pm 18:53 Partly Cloudy 83 28.3 61 16.1 48 48 S 14 22 29.92 1013 10 16 0.00 0.00
7:53 pm 19:53 Partly Cloudy 82 27.8 62 16.7 51 51 S 15 24 29.91 1013 10 16 0.00 0.00
8:53 pm 20:53 Mostly Sunny 80 26.7 63 17.2 56 56 SE 9 15 29.91 1013 10 16 0.00 0.00
9:53 pm 21:53 Mostly Clear 77 25 64 17.8 64 64 SSE 9 15 29.91 1013 10 16 0.00 0.00
10:53 pm 22:53 Mostly Clear 75 23.9 65 18.3 71 71 SSE 9 15 29.91 1013 10 16 0.00 0.00
11:53 pm 23:53 Mostly Clear 76 24.4 64 17.8 67 67 S 13 20 29.91 1013 10 16 0.00 0.00

Powered by AerisWeather